Time,TemperatureF,DewpointF,PressureIn,WindDirection,WindDirectionDegrees,WindSpeedMPH,WindSpeedGustMPH,Humidity,HourlyPrecipIn,Conditions,Clouds,dailyrainin,SoftwareType,DateUTC
2013-01-29 00:11:00,65.0,58.0,29.78,North,-999,-999.0,-999.0,77,-99.99,,,-99.99,,2013-01-29 06:11:00,
2013-01-29 00:21:00,65.0,58.0,29.78,North,-999,-999.0,-999.0,77,-99.99,,,-99.99,,2013-01-29 06:21:00,
2013-01-29 00:32:00,65.0,58.0,29.79,North,-999,-999.0,-999.0,76,-99.99,,,-99.99,,2013-01-29 06:32:00,
2013-01-29 00:42:00,66.0,58.0,29.79,North,-999,-999.0,-999.0,76,-99.99,,,-99.99,,2013-01-29 06:42:00,
2013-01-29 00:52:00,66.0,58.0,29.79,North,-999,-999.0,-999.0,76,-99.99,,,-99.99,,2013-01-29 06:52:00,
2013-01-29 01:01:00,65.0,58.0,29.78,North,-999,-999.0,-999.0,76,-99.99,,,-99.99,,2013-01-29 07:01:00,
2013-01-29 01:11:00,66.0,58.0,29.77,North,-999,-999.0,-999.0,76,-99.99,,,-99.99,,2013-01-29 07:11:00,
2013-01-29 01:21:00,66.0,58.0,29.77,North,-999,-999.0,-999.0,76,-99.99,,,-99.99,,2013-01-29 07:21:00,
2013-01-29 01:32:00,65.0,57.0,29.76,North,-999,-999.0,-999.0,75,-99.99,,,-99.99,,2013-01-29 07:32:00,
2013-01-29 01:42:00,66.0,58.0,29.76,North,-999,-999.0,-999.0,75,-99.99,,,-99.99,,2013-01-29 07:42:00,
2013-01-29 01:50:00,66.0,57.0,29.74,North,-999,-999.0,-999.0,73,-99.99,,,-99.99,,2013-01-29 07:50:00,
2013-01-29 01:52:00,66.0,58.0,29.76,North,-999,-999.0,-999.0,75,-99.99,,,-99.99,,2013-01-29 07:52:00,
2013-01-29 02:02:00,66.0,57.0,29.75,North,-999,-999.0,-999.0,74,-99.99,,,-99.99,,2013-01-29 08:02:00,
2013-01-29 02:11:00,66.0,57.0,29.75,North,-999,-999.0,-999.0,74,-99.99,,,-99.99,,2013-01-29 08:11:00,
2013-01-29 02:21:00,66.0,57.0,29.75,North,-999,-999.0,-999.0,74,-99.99,,,-99.99,,2013-01-29 08:21:00,
2013-01-29 02:31:00,66.0,57.0,29.74,North,-999,-999.0,-999.0,73,-99.99,,,-99.99,,2013-01-29 08:31:00,
2013-01-29 02:42:00,66.0,57.0,29.74,North,-999,-999.0,-999.0,73,-99.99,,,-99.99,,2013-01-29 08:42:00,
2013-01-29 03:01:00,66.0,57.0,29.74,North,-999,-999.0,-999.0,72,-99.99,,,-99.99,,2013-01-29 09:01:00,
2013-01-29 03:11:00,66.0,57.0,29.74,North,-999,-999.0,-999.0,72,-99.99,,,-99.99,,2013-01-29 09:11:00,
2013-01-29 03:21:00,66.0,57.0,29.74,North,-999,-999.0,-999.0,72,-99.99,,,-99.99,,2013-01-29 09:21:00,
2013-01-29 03:32:00,66.0,57.0,29.74,North,-999,-999.0,-999.0,72,-99.99,,,-99.99,,2013-01-29 09:32:00,
2013-01-29 03:42:00,66.0,57.0,29.75,North,-999,-999.0,-999.0,73,-99.99,,,-99.99,,2013-01-29 09:42:00,
2013-01-29 03:51:00,66.0,57.0,29.75,North,-999,-999.0,-999.0,73,-99.99,,,-99.99,,2013-01-29 09:51:00,
2013-01-29 04:01:00,66.0,57.0,29.74,North,-999,-999.0,-999.0,72,-99.99,,,-99.99,,2013-01-29 10:01:00,
2013-01-29 04:11:00,66.0,57.0,29.74,North,-999,-999.0,-999.0,72,-99.99,,,-99.99,,2013-01-29 10:11:00,
2013-01-29 04:21:00,66.0,57.0,29.74,North,-999,-999.0,-999.0,72,-99.99,,,-99.99,,2013-01-29 10:21:00,
2013-01-29 04:32:00,66.0,57.0,29.73,North,-999,-999.0,-999.0,73,-99.99,,,-99.99,,2013-01-29 10:32:00,
2013-01-29 04:41:00,66.0,57.0,29.73,North,-999,-999.0,-999.0,73,-99.99,,,-99.99,,2013-01-29 10:41:00,
2013-01-29 04:52:00,66.0,57.0,29.73,North,-999,-999.0,-999.0,73,-99.99,,,-99.99,,2013-01-29 10:52:00,
2013-01-29 05:02:00,65.0,57.0,29.73,North,-999,-999.0,-999.0,73,-99.99,,,-99.99,,2013-01-29 11:02:00,
2013-01-29 05:11:00,66.0,57.0,29.72,North,-999,-999.0,-999.0,73,-99.99,,,-99.99,,2013-01-29 11:11:00,
2013-01-29 05:22:00,66.0,57.0,29.72,North,-999,-999.0,-999.0,73,-99.99,,,-99.99,,2013-01-29 11:22:00,
2013-01-29 05:32:00,66.0,57.0,29.71,North,-999,-999.0,-999.0,73,-99.99,,,-99.99,,2013-01-29 11:32:00,
2013-01-29 05:42:00,66.0,57.0,29.71,North,-999,-999.0,-999.0,73,-99.99,,,-99.99,,2013-01-29 11:42:00,
2013-01-29 05:52:00,66.0,57.0,29.71,North,-999,-999.0,-999.0,72,-99.99,,,-99.99,,2013-01-29 11:52:00,
2013-01-29 06:02:00,66.0,57.0,29.71,North,-999,-999.0,-999.0,72,-99.99,,,-99.99,,2013-01-29 12:02:00,
2013-01-29 06:12:00,66.0,57.0,29.71,North,-999,-999.0,-999.0,73,-99.99,,,-99.99,,2013-01-29 12:12:00,
2013-01-29 06:22:00,66.0,57.0,29.71,North,-999,-999.0,-999.0,73,-99.99,,,-99.99,,2013-01-29 12:22:00,
2013-01-29 06:33:00,66.0,57.0,29.70,North,-999,-999.0,-999.0,73,-99.99,,,-99.99,,2013-01-29 12:33:00,
2013-01-29 06:43:00,66.0,57.0,29.70,North,-999,-999.0,-999.0,73,-99.99,,,-99.99,,2013-01-29 12:43:00,
2013-01-29 06:52:00,66.0,57.0,29.70,North,-999,-999.0,-999.0,73,-99.99,,,-99.99,,2013-01-29 12:52:00,
2013-01-29 07:02:00,65.0,57.0,29.69,North,-999,-999.0,-999.0,74,-99.99,,,-99.99,,2013-01-29 13:02:00,
2013-01-29 07:12:00,65.0,56.0,29.67,North,-999,-999.0,-999.0,74,-99.99,,,-99.99,,2013-01-29 13:12:00,
2013-01-29 07:22:00,65.0,56.0,29.67,North,-999,-999.0,-999.0,74,-99.99,,,-99.99,,2013-01-29 13:22:00,
2013-01-29 07:32:00,65.0,57.0,29.67,North,-999,-999.0,-999.0,74,-99.99,,,-99.99,,2013-01-29 13:32:00,
2013-01-29 07:42:00,65.0,57.0,29.67,North,-999,-999.0,-999.0,75,-99.99,,,-99.99,,2013-01-29 13:42:00,
2013-01-29 07:52:00,65.0,57.0,29.67,North,-999,-999.0,-999.0,75,-99.99,,,-99.99,,2013-01-29 13:52:00,
2013-01-29 08:02:00,65.0,57.0,29.66,North,-999,-999.0,-999.0,75,-99.99,,,-99.99,,2013-01-29 14:02:00,
2013-01-29 08:12:00,65.0,57.0,29.65,North,-999,-999.0,-999.0,75,-99.99,,,-99.99,,2013-01-29 14:12:00,
2013-01-29 08:22:00,65.0,57.0,29.65,North,-999,-999.0,-999.0,75,-99.99,,,-99.99,,2013-01-29 14:22:00,
2013-01-29 08:33:00,64.0,56.0,29.65,North,-999,-999.0,-999.0,76,-99.99,,,-99.99,,2013-01-29 14:33:00,
2013-01-29 08:43:00,64.0,57.0,29.65,North,-999,-999.0,-999.0,77,-99.99,,,-99.99,,2013-01-29 14:43:00,
2013-01-29 08:52:00,64.0,57.0,29.65,North,-999,-999.0,-999.0,77,-99.99,,,-99.99,,2013-01-29 14:52:00,
2013-01-29 09:02:00,65.0,57.0,29.65,North,-999,-999.0,-999.0,76,-99.99,,,-99.99,,2013-01-29 15:02:00,
2013-01-29 09:12:00,65.0,57.0,29.65,North,-999,-999.0,-999.0,76,-99.99,,,-99.99,,2013-01-29 15:12:00,
2013-01-29 09:22:00,65.0,57.0,29.65,North,-999,-999.0,-999.0,76,-99.99,,,-99.99,,2013-01-29 15:22:00,
2013-01-29 09:33:00,65.0,57.0,29.65,North,-999,-999.0,-999.0,75,-99.99,,,-99.99,,2013-01-29 15:33:00,
2013-01-29 09:43:00,65.0,57.0,29.64,North,-999,-999.0,-999.0,75,-99.99,,,-99.99,,2013-01-29 15:43:00,
2013-01-29 09:52:00,65.0,57.0,29.64,North,-999,-999.0,-999.0,75,-99.99,,,-99.99,,2013-01-29 15:52:00,
2013-01-29 10:02:00,66.0,57.0,29.63,North,-999,-999.0,-999.0,74,-99.99,,,-99.99,,2013-01-29 16:02:00,
2013-01-29 10:12:00,66.0,57.0,29.63,North,-999,-999.0,-999.0,74,-99.99,,,-99.99,,2013-01-29 16:12:00,
2013-01-29 10:22:00,66.0,57.0,29.63,North,-999,-999.0,-999.0,74,-99.99,,,-99.99,,2013-01-29 16:22:00,
2013-01-29 10:32:00,67.0,58.0,29.63,North,-999,-999.0,-999.0,73,-99.99,,,-99.99,,2013-01-29 16:32:00,
2013-01-29 10:43:00,67.0,57.0,29.63,North,-999,-999.0,-999.0,72,-99.99,,,-99.99,,2013-01-29 16:43:00,
2013-01-29 10:52:00,67.0,57.0,29.63,North,-999,-999.0,-999.0,72,-99.99,,,-99.99,,2013-01-29 16:52:00,
2013-01-29 11:03:00,67.0,58.0,29.61,North,-999,-999.0,-999.0,72,-99.99,,,-99.99,,2013-01-29 17:03:00,
2013-01-29 11:12:00,67.0,58.0,29.61,North,-999,-999.0,-999.0,71,-99.99,,,-99.99,,2013-01-29 17:12:00,
2013-01-29 11:20:00,69.0,58.0,29.56,North,-999,-999.0,-999.0,69,-99.99,,,-99.99,,2013-01-29 17:20:00,
2013-01-29 11:22:00,67.0,58.0,29.61,North,-999,-999.0,-999.0,71,-99.99,,,-99.99,,2013-01-29 17:22:00,
2013-01-29 11:32:00,68.0,58.0,29.59,North,-999,-999.0,-999.0,70,-99.99,,,-99.99,,2013-01-29 17:32:00,
2013-01-29 11:42:00,68.0,58.0,29.59,North,-999,-999.0,-999.0,69,-99.99,,,-99.99,,2013-01-29 17:42:00,
2013-01-29 11:52:00,68.0,58.0,29.59,North,-999,-999.0,-999.0,69,-99.99,,,-99.99,,2013-01-29 17:52:00,
2013-01-29 12:04:00,69.0,58.0,29.56,North,-999,-999.0,-999.0,69,-99.99,,,-99.99,,2013-01-29 18:04:00,
2013-01-29 12:12:00,69.0,58.0,29.56,North,-999,-999.0,-999.0,69,-99.99,,,-99.99,,2013-01-29 18:12:00,
2013-01-29 12:33:00,68.0,59.0,29.54,North,-999,-999.0,-999.0,73,-99.99,,,-99.99,,2013-01-29 18:33:00,
2013-01-29 12:42:00,64.0,58.0,29.52,North,-999,-999.0,-999.0,80,-99.99,,,-99.99,,2013-01-29 18:42:00,
2013-01-29 12:52:00,64.0,58.0,29.52,North,-999,-999.0,-999.0,80,-99.99,,,-99.99,,2013-01-29 18:52:00,
2013-01-29 13:02:00,65.0,60.0,29.51,North,-999,-999.0,-999.0,84,-99.99,,,-99.99,,2013-01-29 19:02:00,
2013-01-29 13:12:00,66.0,60.0,29.50,North,-999,-999.0,-999.0,81,-99.99,,,-99.99,,2013-01-29 19:12:00,
2013-01-29 13:22:00,66.0,60.0,29.50,North,-999,-999.0,-999.0,81,-99.99,,,-99.99,,2013-01-29 19:22:00,
2013-01-29 13:32:00,65.0,59.0,29.48,North,-999,-999.0,-999.0,81,-99.99,,,-99.99,,2013-01-29 19:32:00,
2013-01-29 13:42:00,64.0,59.0,29.48,North,-999,-999.0,-999.0,82,-99.99,,,-99.99,,2013-01-29 19:42:00,
2013-01-29 13:52:00,64.0,59.0,29.48,North,-999,-999.0,-999.0,82,-99.99,,,-99.99,,2013-01-29 19:52:00,
2013-01-29 14:02:00,56.0,51.0,29.50,North,-999,-999.0,-999.0,85,-99.99,,,-99.99,,2013-01-29 20:02:00,
2013-01-29 14:12:00,55.0,52.0,29.53,North,-999,-999.0,-999.0,88,-99.99,,,-99.99,,2013-01-29 20:12:00,
2013-01-29 14:22:00,55.0,52.0,29.53,North,-999,-999.0,-999.0,88,-99.99,,,-99.99,,2013-01-29 20:22:00,
2013-01-29 14:33:00,55.0,53.0,29.51,North,-999,-999.0,-999.0,90,-99.99,,,-99.99,,2013-01-29 20:33:00,
2013-01-29 14:42:00,56.0,53.0,29.50,North,-999,-999.0,-999.0,90,-99.99,,,-99.99,,2013-01-29 20:42:00,
2013-01-29 14:53:00,56.0,53.0,29.50,North,-999,-999.0,-999.0,90,-99.99,,,-99.99,,2013-01-29 20:53:00,
2013-01-29 15:03:00,55.0,52.0,29.52,North,-999,-999.0,-999.0,90,-99.99,,,-99.99,,2013-01-29 21:03:00,
2013-01-29 15:12:00,55.0,52.0,29.51,North,-999,-999.0,-999.0,90,-99.99,,,-99.99,,2013-01-29 21:12:00,
2013-01-29 15:22:00,55.0,52.0,29.51,North,-999,-999.0,-999.0,90,-99.99,,,-99.99,,2013-01-29 21:22:00,
2013-01-29 15:33:00,55.0,52.0,29.50,North,-999,-999.0,-999.0,90,-99.99,,,-99.99,,2013-01-29 21:33:00,
2013-01-29 15:42:00,55.0,52.0,29.50,North,-999,-999.0,-999.0,90,-99.99,,,-99.99,,2013-01-29 21:42:00,
2013-01-29 15:52:00,55.0,52.0,29.50,North,-999,-999.0,-999.0,90,-99.99,,,-99.99,,2013-01-29 21:52:00,
2013-01-29 16:03:00,55.0,52.0,29.48,North,-999,-999.0,-999.0,90,-99.99,,,-99.99,,2013-01-29 22:03:00,
2013-01-29 16:12:00,55.0,52.0,29.49,North,-999,-999.0,-999.0,90,-99.99,,,-99.99,,2013-01-29 22:12:00,
2013-01-29 16:22:00,55.0,52.0,29.49,North,-999,-999.0,-999.0,90,-99.99,,,-99.99,,2013-01-29 22:22:00,
2013-01-29 16:33:00,54.0,52.0,29.49,North,-999,-999.0,-999.0,90,-99.99,,,-99.99,,2013-01-29 22:33:00,
2013-01-29 16:42:00,54.0,51.0,29.48,North,-999,-999.0,-999.0,90,-99.99,,,-99.99,,2013-01-29 22:42:00,
2013-01-29 16:52:00,54.0,51.0,29.48,North,-999,-999.0,-999.0,90,-99.99,,,-99.99,,2013-01-29 22:52:00,
2013-01-29 17:02:00,54.0,52.0,29.48,North,-999,-999.0,-999.0,91,-99.99,,,-99.99,,2013-01-29 23:02:00,
2013-01-29 17:12:00,54.0,52.0,29.49,North,-999,-999.0,-999.0,91,-99.99,,,-99.99,,2013-01-29 23:12:00,
2013-01-29 17:22:00,54.0,52.0,29.49,North,-999,-999.0,-999.0,91,-99.99,,,-99.99,,2013-01-29 23:22:00,
2013-01-29 17:33:00,54.0,51.0,29.48,North,-999,-999.0,-999.0,90,-99.99,,,-99.99,,2013-01-29 23:33:00,
2013-01-29 17:42:00,54.0,51.0,29.50,North,-999,-999.0,-999.0,91,-99.99,,,-99.99,,2013-01-29 23:42:00,
2013-01-29 17:52:00,54.0,51.0,29.50,North,-999,-999.0,-999.0,91,-99.99,,,-99.99,,2013-01-29 23:52:00,
2013-01-29 18:00:00,53.0,51.0,29.48,North,-999,-999.0,-999.0,91,-99.99,,,-99.99,,2013-01-30 00:00:00,
2013-01-29 18:03:00,53.0,51.0,29.47,North,-999,-999.0,-999.0,91,-99.99,,,-99.99,,2013-01-30 00:03:00,
2013-01-29 18:12:00,54.0,51.0,29.48,North,-999,-999.0,-999.0,91,-99.99,,,-99.99,,2013-01-30 00:12:00,
2013-01-29 18:22:00,54.0,51.0,29.48,North,-999,-999.0,-999.0,91,-99.99,,,-99.99,,2013-01-30 00:22:00,
2013-01-29 18:32:00,54.0,51.0,29.50,North,-999,-999.0,-999.0,91,-99.99,,,-99.99,,2013-01-30 00:32:00,
2013-01-29 18:42:00,53.0,51.0,29.48,North,-999,-999.0,-999.0,91,-99.99,,,-99.99,,2013-01-30 00:42:00,
2013-01-29 18:52:00,53.0,51.0,29.48,North,-999,-999.0,-999.0,91,-99.99,,,-99.99,,2013-01-30 00:52:00,
2013-01-29 19:12:00,53.0,51.0,29.51,North,-999,-999.0,-999.0,91,-99.99,,,-99.99,,2013-01-30 01:12:00,
2013-01-29 19:22:00,53.0,51.0,29.51,North,-999,-999.0,-999.0,91,-99.99,,,-99.99,,2013-01-30 01:22:00,
2013-01-29 19:32:00,53.0,50.0,29.51,North,-999,-999.0,-999.0,90,-99.99,,,-99.99,,2013-01-30 01:32:00,
2013-01-29 19:42:00,53.0,50.0,29.50,North,-999,-999.0,-999.0,90,-99.99,,,-99.99,,2013-01-30 01:42:00,
2013-01-29 19:52:00,53.0,50.0,29.50,North,-999,-999.0,-999.0,90,-99.99,,,-99.99,,2013-01-30 01:52:00,
2013-01-29 20:00:00,53.0,50.0,29.48,North,-999,-999.0,-999.0,90,-99.99,,,-99.99,,2013-01-30 02:00:00,
2013-01-29 20:02:00,53.0,50.0,29.49,North,-999,-999.0,-999.0,90,-99.99,,,-99.99,,2013-01-30 02:02:00,
2013-01-29 20:12:00,53.0,50.0,29.49,North,-999,-999.0,-999.0,90,-99.99,,,-99.99,,2013-01-30 02:12:00,
2013-01-29 20:22:00,53.0,50.0,29.49,North,-999,-999.0,-999.0,90,-99.99,,,-99.99,,2013-01-30 02:22:00,
2013-01-29 20:33:00,53.0,50.0,29.49,North,-999,-999.0,-999.0,90,-99.99,,,-99.99,,2013-01-30 02:33:00,
2013-01-29 20:42:00,53.0,50.0,29.48,North,-999,-999.0,-999.0,90,-99.99,,,-99.99,,2013-01-30 02:42:00,
2013-01-29 20:52:00,53.0,50.0,29.48,North,-999,-999.0,-999.0,90,-99.99,,,-99.99,,2013-01-30 02:52:00,
2013-01-29 21:12:00,53.0,50.0,29.45,North,-999,-999.0,-999.0,90,-99.99,,,-99.99,,2013-01-30 03:12:00,
2013-01-29 21:22:00,53.0,50.0,29.45,North,-999,-999.0,-999.0,90,-99.99,,,-99.99,,2013-01-30 03:22:00,
2013-01-29 21:32:00,52.0,49.0,29.45,North,-999,-999.0,-999.0,90,-99.99,,,-99.99,,2013-01-30 03:32:00,
2013-01-29 21:42:00,52.0,49.0,29.44,North,-999,-999.0,-999.0,90,-99.99,,,-99.99,,2013-01-30 03:42:00,
2013-01-29 21:52:00,52.0,49.0,29.44,North,-999,-999.0,-999.0,90,-99.99,,,-99.99,,2013-01-30 03:52:00,
2013-01-29 22:02:00,52.0,49.0,29.44,North,-999,-999.0,-999.0,90,-99.99,,,-99.99,,2013-01-30 04:02:00,
2013-01-29 22:12:00,52.0,49.0,29.44,North,-999,-999.0,-999.0,90,-99.99,,,-99.99,,2013-01-30 04:12:00,
2013-01-29 22:22:00,52.0,49.0,29.44,North,-999,-999.0,-999.0,90,-99.99,,,-99.99,,2013-01-30 04:22:00,
2013-01-29 22:32:00,52.0,49.0,29.44,North,-999,-999.0,-999.0,90,-99.99,,,-99.99,,2013-01-30 04:32:00,
2013-01-29 22:41:00,52.0,49.0,29.46,North,-999,-999.0,-999.0,90,-99.99,,,-99.99,,2013-01-30 04:41:00,
2013-01-29 22:52:00,52.0,49.0,29.46,North,-999,-999.0,-999.0,90,-99.99,,,-99.99,,2013-01-30 04:52:00,
2013-01-29 23:03:00,52.0,49.0,29.46,North,-999,-999.0,-999.0,90,-99.99,,,-99.99,,2013-01-30 05:03:00,
2013-01-29 23:12:00,52.0,49.0,29.48,North,-999,-999.0,-999.0,90,-99.99,,,-99.99,,2013-01-30 05:12:00,
2013-01-29 23:22:00,52.0,49.0,29.48,North,-999,-999.0,-999.0,90,-99.99,,,-99.99,,2013-01-30 05:22:00,
2013-01-29 23:32:00,47.0,43.0,29.52,North,-999,-999.0,-999.0,88,-99.99,,,-99.99,,2013-01-30 05:32:00,
2013-01-29 23:43:00,44.0,41.0,29.53,North,-999,-999.0,-999.0,88,-99.99,,,-99.99,,2013-01-30 05:43:00,
2013-01-29 23:52:00,43.0,40.0,29.41,North,-999,-999.0,-999.0,89,-99.99,,,-99.99,,2013-01-30 05:52:00,